Garnett Industrial Airport (K68)
Garnett, KS
Field Elevation: 989
Lat: 38°16.64N  Long: 95°12.91W
CTAF/Unicom Freq: 122.8000
   
     For Weather-by-Phone, call 785-448-3254
Weather Advisories
8/23/2014 01:32 Z
Altimeter 29.90" Hg
Wind 230° @ 0 KT
Gusts --
Visibility 10 SM
Temperature 28° C (82° F)
Dewpoint 22° C (72° F)
Relative Humidity 72%
Density Altitude 2,700 feet
Condensation Altitude 3,800 feet
Heat Index 31° C (88° F)
  Wind and Runways
Indicated Runway = 19
History
 
 
More Info
All DigiWx sites map
NOAA Forecast
 
Airport IQ 5010
(FLV) Sherman Airfield
(GRE) Greenville
 
about DigiWx
 
FAA Disclaimer: The data displayed is for advisory purposes only and is not to be used for flight planning or operations. For official data, please call 785-448-3254 to hear the current automated AWOS voice message.
  METAR K68 230132Z AUTO 23000KT 10SM 28/22 A2990